Starlink 4643

operational
NORAD ID: 54824 Int'l Des: 2022-177 Owner: SPXS Country: US Constellation: starlink
LEOCIRCULAR

关于 Starlink 4643

正在加载描述...

实时位置

正在加载3D地球...

即将过境

高度历史

Altitude vs Time

uPlot chart will show altitude changes over time

两行轨道根数

1 54824U 22177E 25350.06382931 .00000131 00000-0 24735-4 0 9999
2 54824 43.0029 227.9222 0001195 266.7270 93.3436 15.02533994164375
Epoch: Dec 16, 2025 • Age: 34 hours

当前状态

高度 562.8 km
速度 7.59 km/s
星下点 42.25°N, 38.69°E
发射日期 Dec 28, 2022
运行时间 2.9 years
类型 internet

技术详情

分类 Payload
质量 305.00 kg
干质量 290.00 kg
总质量 305.00 kg
长度 0.20 m
直径 2.80 m
跨度 9.00 m
形状 Box + pan
制造商 SPXS
平台类型 Starlink
阶段状态 In Orbit
所有者/国家 SPXS/US

大型星座

Loading constellations...